CDT,Max TemperatureF,Mean TemperatureF,Min TemperatureF,Max Dew PointF,MeanDew PointF,Min DewpointF,Max Humidity, Mean Humidity, Min Humidity, Max Sea Level PressureIn, Mean Sea Level PressureIn, Min Sea Level PressureIn, Max VisibilityMiles, Mean VisibilityMiles, Min VisibilityMiles, Max Wind SpeedMPH, Mean Wind SpeedMPH, Max Gust SpeedMPH,PrecipitationIn, CloudCover, Events, WindDirDegrees
2013-7-1,99,88,76,72,64,51,87,52,28,29.98,29.91,29.87,10,10,10,28,7,24,0.00,1,,51
2013-7-2,96,86,76,61,56,50,50,38,22,30.06,29.99,29.93,10,10,10,15,9,18,0.00,2,,40
2013-7-3,97,85,73,67,59,51,73,43,23,30.01,29.95,29.85,10,10,10,22,6,26,0.00,1,,120
2013-7-4,100,88,76,70,62,55,79,45,23,29.95,29.90,29.82,10,10,10,23,11,27,0.00,1,,146
2013-7-5,101,88,74,71,64,55,87,50,22,29.95,29.88,29.77,10,10,9,24,10,29,0.00,0,,133
2013-7-6,102,89,75,73,67,58,87,55,24,29.90,29.84,29.75,10,10,10,28,10,32,0.00,1,,113
2013-7-7,96,86,76,74,71,69,87,64,43,29.93,29.88,29.84,10,10,4,24,11,29,T,1,Rain,120
2013-7-8,91,84,77,74,71,68,88,72,52,30.08,30.01,29.94,10,10,2,31,12,37,T,1,Rain,130
2013-7-9,99,88,77,77,73,65,100,71,34,30.12,30.05,29.95,10,10,8,24,12,29,0.00,4,,129
2013-7-10,101,89,77,74,69,64,88,57,32,30.06,29.99,29.89,10,10,10,23,12,26,0.00,1,,139
2013-7-11,101,90,78,73,68,61,82,52,28,29.98,29.92,29.83,10,10,10,24,12,29,0.00,0,,136
2013-7-12,102,90,78,72,67,60,79,52,25,29.93,29.88,29.83,10,10,10,23,12,26,0.00,0,,134
2013-7-13,102,89,75,72,66,59,84,51,26,29.96,29.89,29.82,10,10,10,22,9,25,0.00,0,,126
2013-7-14,104,91,78,71,65,55,74,48,20,29.88,29.84,29.75,10,10,10,27,11,30,0.00,0,,133
2013-7-15,100,88,75,74,70,60,97,67,29,29.99,29.87,29.78,10,8,1,31,14,38,2.12,3,Rain,102
2013-7-16,91,84,76,75,73,70,94,74,52,30.05,29.97,29.92,10,10,8,22,12,26,0.05,2,Rain,86
2013-7-17,92,84,75,75,73,67,94,82,44,30.12,30.06,30.01,10,8,1,26,10,31,0.07,5,,89
2013-7-18,92,83,73,75,72,68,100,81,49,30.14,30.07,29.96,10,8,2,20,10,23,0.00,4,,73
2013-7-19,96,85,74,73,71,67,97,69,39,30.07,29.97,29.86,10,9,0,31,8,38,0.03,3,,109
2013-7-20,95,85,75,74,72,68,90,72,44,29.99,29.91,29.83,10,10,7,28,7,33,T,3,Thunderstorm,123
2013-7-21,98,86,73,77,72,67,100,75,39,29.99,29.90,29.80,10,9,4,24,9,30,0.17,3,Thunderstorm,135
2013-7-22,101,91,80,74,72,66,79,61,33,29.98,29.90,29.81,10,10,8,24,15,29,0.00,2,,150
2013-7-23,103,91,78,73,68,57,82,54,23,29.96,29.90,29.81,10,9,6,25,16,31,0.00,0,,152
2013-7-24,103,91,78,74,67,59,85,51,26,29.94,29.88,29.80,10,9,6,20,13,23,0.00,0,,143
2013-7-25,104,91,78,74,69,63,85,57,29,30.01,29.94,29.88,10,9,7,23,11,28,0.00,2,,132
2013-7-26,103,92,80,74,69,60,79,52,25,29.99,29.93,29.83,10,10,10,21,10,25,0.00,0,,147
2013-7-27,99,90,80,73,71,68,74,58,42,29.94,29.88,29.80,10,10,9,18,8,23,0.00,0,Thunderstorm,67
2013-7-28,104,92,79,75,69,58,85,54,24,29.90,29.84,29.77,10,9,6,24,9,29,0.00,0,,130
2013-7-29,106,93,79,73,67,56,77,49,20,29.98,29.91,29.85,10,9,7,28,17,39,0.00,0,,143
2013-7-30,106,93,80,73,68,56,79,52,20,30.04,29.98,29.89,10,9,5,24,14,29,0.00,1,,145
2013-7-31,105,92,78,72,66,52,82,49,17,30.04,29.98,29.88,10,10,9,23,11,28,0.00,0,,127